EN

Hourly Weather Bolshie Zhuhovichi

Today, 26 October, Monday

Time Temperature Precipitation Wind Pressure Humidity
00:00 +8°C° 0 mm 2 mps 748 mmHg 94%
01:00 +8°C° 0 mm 2 mps 748 mmHg 95%
02:00 +8°C° 0 mm 3 mps 748 mmHg 95%
03:00 +8°C° 0 mm 3 mps 748 mmHg 94%
04:00 +8°C° 0 mm 3 mps 748 mmHg 93%
05:00 +8°C° 0 mm 3 mps 748 mmHg 93%
06:00 +7°C° 0 mm 4 mps 748 mmHg 91%
07:00 +8°C° 0 mm 4 mps 747 mmHg 89%
08:00 +8°C° 0 mm 4 mps 747 mmHg 87%
09:00 +9°C° 0 mm 5 mps 747 mmHg 84%
10:00 +9°C° 0 mm 5 mps 747 mmHg 81%
11:00 +10°C° 0 mm 6 mps 747 mmHg 79%
12:00 +11°C° 0 mm 6 mps 747 mmHg 76%
13:00 +13°C° 0 mm 6 mps 747 mmHg 74%
14:00 +14°C° 0 mm 6 mps 746 mmHg 71%
15:00 +13°C° 0 mm 6 mps 746 mmHg 73%
16:00 +11°C° 0 mm 6 mps 746 mmHg 76%
17:00 +12°C° 0 mm 5 mps 746 mmHg 78%
18:00 +10°C° 0 mm 5 mps 746 mmHg 80%
19:00 +10°C° 0 mm 5 mps 746 mmHg 81%
20:00 +10°C° 0 mm 5 mps 746 mmHg 83%
21:00 +9°C° 0 mm 5 mps 746 mmHg 85%
22:00 +9°C° 0 mm 5 mps 746 mmHg 87%
23:00 +9°C° 0 mm 5 mps 746 mmHg 89%

Tomorrow, 27 October, Tuesday

Time Temperature Precipitation Wind Pressure Humidity
00:00 +9°C° 0 mm 5 mps 746 mmHg 90%
01:00 +8°C° 0 mm 5 mps 746 mmHg 91%
02:00 +8°C° 0 mm 5 mps 746 mmHg 92%
03:00 +8°C° 0 mm 5 mps 746 mmHg 93%
04:00 +8°C° 0 mm 5 mps 746 mmHg 93%
05:00 +8°C° 0 mm 5 mps 746 mmHg 93%
06:00 +8°C° 0 mm 5 mps 746 mmHg 94%
07:00 +8°C° 0 mm 5 mps 746 mmHg 94%
08:00 +8°C° 0 mm 5 mps 746 mmHg 94%
09:00 +9°C° 0 mm 5 mps 746 mmHg 90%
10:00 +10°C° 0 mm 5 mps 747 mmHg 86%
11:00 +13°C° 0 mm 6 mps 747 mmHg 82%
12:00 +13°C° 0 mm 6 mps 747 mmHg 79%
13:00 +14°C° 0 mm 5 mps 747 mmHg 77%
14:00 +15°C° 0 mm 5 mps 747 mmHg 74%
15:00 +14°C° 0 mm 5 mps 747 mmHg 79%
16:00 +13°C° 0 mm 4 mps 747 mmHg 83%
17:00 +12°C° 0 mm 4 mps 747 mmHg 87%
18:00 +12°C° 0 mm 4 mps 747 mmHg 87%
19:00 +11°C° 0 mm 4 mps 747 mmHg 88%
20:00 +10°C° 0 mm 5 mps 747 mmHg 88%
21:00 +11°C° 0 mm 4 mps 747 mmHg 89%
22:00 +10°C° 0 mm 4 mps 747 mmHg 90%
23:00 +10°C° 0 mm 4 mps 747 mmHg 91%

Day after tomorrow, 28 October, Wednesday

Time Temperature Precipitation Wind Pressure Humidity
00:00 +10°C° 0 mm 4 mps 747 mmHg 91%
01:00 +10°C° 0 mm 4 mps 747 mmHg 92%
02:00 +8°C° 0 mm 4 mps 747 mmHg 93%
03:00 +8°C° 0 mm 4 mps 747 mmHg 93%
04:00 +8°C° 0 mm 4 mps 747 mmHg 94%
05:00 +8°C° 0 mm 4 mps 746 mmHg 94%
06:00 +8°C° 0 mm 4 mps 747 mmHg 95%
07:00 +8°C° 0 mm 4 mps 747 mmHg 95%
08:00 +8°C° 0 mm 4 mps 747 mmHg 95%
09:00 +10°C° 0 mm 4 mps 747 mmHg 91%
10:00 +11°C° 0 mm 4 mps 747 mmHg 87%
11:00 +13°C° 0 mm 4 mps 747 mmHg 84%
12:00 +13°C° 0 mm 4 mps 747 mmHg 82%
13:00 +14°C° 0 mm 4 mps 747 mmHg 80%
14:00 +16°C° 0 mm 3 mps 747 mmHg 78%
15:00 +14°C° 0 mm 3 mps 747 mmHg 82%
16:00 +13°C° 0 mm 3 mps 747 mmHg 86%
17:00 +12°C° 0 mm 3 mps 747 mmHg 91%
18:00 +12°C° 0 mm 3 mps 748 mmHg 90%
19:00 +13°C° 0 mm 3 mps 748 mmHg 90%
20:00 +13°C° 0 mm 3 mps 748 mmHg 89%
21:00 +12°C° 0 mm 3 mps 748 mmHg 90%
22:00 +12°C° 0 mm 3 mps 748 mmHg 91%
23:00 +12°C° 0 mm 3 mps 748 mmHg 92%

29 October, Thursday

Time Temperature Precipitation Wind Pressure Humidity
00:00 +11°C° 0 mm 3 mps 748 mmHg 93%
01:00 +11°C° 0 mm 3 mps 748 mmHg 93%
02:00 +11°C° 0 mm 3 mps 747 mmHg 94%
03:00 +11°C° 0 mm 3 mps 747 mmHg 93%
04:00 +11°C° 0 mm 3 mps 747 mmHg 91%
05:00 +11°C° 0 mm 3 mps 747 mmHg 90%
06:00 +11°C° 0 mm 3 mps 747 mmHg 89%
07:00 +11°C° 0 mm 3 mps 747 mmHg 88%
08:00 +11°C° 0 mm 3 mps 747 mmHg 87%
09:00 +11°C° 0 mm 3 mps 748 mmHg 85%
10:00 +12°C° 0 mm 4 mps 748 mmHg 83%
11:00 +13°C° 0 mm 4 mps 748 mmHg 81%
12:00 +13°C° 0 mm 4 mps 748 mmHg 80%
13:00 +13°C° 0 mm 4 mps 748 mmHg 78%
14:00 +14°C° 0 mm 3 mps 747 mmHg 77%
15:00 +13°C° 0 mm 3 mps 747 mmHg 81%
16:00 +13°C° 0 mm 3 mps 748 mmHg 84%
17:00 +13°C° 0 mm 2 mps 748 mmHg 87%
18:00 +13°C° 0.1 mm 2 mps 748 mmHg 88%
19:00 +13°C° 0.1 mm 2 mps 748 mmHg 89%
20:00 +12°C° 0.1 mm 2 mps 748 mmHg 90%
21:00 +12°C° 0.2 mm 2 mps 748 mmHg 89%
22:00 +12°C° 0.2 mm 2 mps 748 mmHg 88%
23:00 +12°C° 0.2 mm 2 mps 748 mmHg 87%

30 October, Friday

Time Temperature Precipitation Wind Pressure Humidity
00:00 +12°C° 0.4 mm 2 mps 749 mmHg 89%
01:00 +10°C° 0.4 mm 2 mps 749 mmHg 90%
02:00 +10°C° 0.4 mm 2 mps 749 mmHg 92%
03:00 +9°C° 0.1 mm 2 mps 749 mmHg 93%
04:00 +9°C° 0.1 mm 2 mps 749 mmHg 93%
05:00 +8°C° 0.1 mm 2 mps 749 mmHg 94%
06:00 +8°C° 0 mm 2 mps 749 mmHg 93%
07:00 +8°C° 0 mm 2 mps 750 mmHg 93%
08:00 +7°C° 0 mm 2 mps 750 mmHg 92%
09:00 +9°C° 0 mm 3 mps 750 mmHg 86%
10:00 +10°C° 0 mm 3 mps 750 mmHg 79%
11:00 +11°C° 0 mm 4 mps 750 mmHg 73%
12:00 +12°C° 0 mm 4 mps 750 mmHg 71%
13:00 +12°C° 0 mm 4 mps 750 mmHg 69%
14:00 +12°C° 0 mm 4 mps 750 mmHg 67%
15:00 +12°C° 0 mm 4 mps 750 mmHg 70%
16:00 +11°C° 0 mm 4 mps 750 mmHg 74%
17:00 +11°C° 0 mm 3 mps 750 mmHg 77%
18:00 +10°C° 0 mm 4 mps 750 mmHg 78%
19:00 +10°C° 0 mm 4 mps 750 mmHg 79%
20:00 +10°C° 0 mm 4 mps 750 mmHg 81%
21:00 +10°C° 0 mm 4 mps 750 mmHg 82%
22:00 +10°C° 0 mm 4 mps 750 mmHg 82%
23:00 +10°C° 0 mm 4 mps 750 mmHg 83%

31 October, Saturday

Time Temperature Precipitation Wind Pressure Humidity
00:00 +10°C° 0 mm 4 mps 750 mmHg 84%
01:00 +10°C° 0 mm 4 mps 750 mmHg 86%
02:00 +10°C° 0 mm 4 mps 750 mmHg 87%
03:00 +10°C° 0 mm 4 mps 750 mmHg 88%
04:00 +10°C° 0 mm 3 mps 750 mmHg 90%
05:00 +9°C° 0 mm 3 mps 750 mmHg 92%
06:00 +9°C° 0 mm 3 mps 750 mmHg 91%
07:00 +9°C° 0 mm 3 mps 750 mmHg 91%
08:00 +10°C° 0 mm 3 mps 750 mmHg 91%
Show more